Location: Unspecified
(0.0000°N, 0.0000°E)
Time: 08:53:36
(UTC+00:00)

Tiangong - Visible Passes

Search period start: 20 April 2026 00:00
Search period end: 30 April 2026 00:00
Orbit: 376 x 385 km, 41.5° (Epoch: 20 April)

Date Brightness Start Highest point End Pass type
(mag) Time Alt. Az. Time Alt. Az. Time Alt. Az.
20 Apr 1.1 19:51:07 10° WSW 19:51:39 11° WSW 19:51:39 11° WSW visible
21 Apr -0.6 18:48:35 10° WNW 18:51:26 32° SW 18:54:04 11° SSE visible
23 Apr -1.0 05:16:43 10° SSW 05:19:41 40° SE 05:22:40 10° ENE visible
23 Apr 0.7 18:23:57 10° WSW 18:25:39 14° SW 18:27:23 10° S visible
24 Apr 0.5 04:18:31 15° SE 04:18:31 15° SE 04:20:21 10° E visible
25 Apr -2.2 04:52:54 42° WSW 04:53:45 67° NW 04:56:51 10° NE visible
26 Apr 1.3 03:55:01 12° ENE 03:55:01 12° ENE 03:55:20 10° ENE visible
27 Apr 0.2 04:29:10 17° N 04:29:10 17° N 04:30:14 10° NNE visible
